Simultaneous Nadir Overpasses (SNOs) Predictions

Prediction of SNOs between LANDSAT-8 and NOAA-19 Satellite Orbit:

Table of predicted SNOs for the next 14.0 days since TLE Epoch: 1/26/2019
Index Date (LANDSAT-8) Time (LANDSAT-8) Lat,Lon (LANDSAT-8) SZA (LANDSAT-8 ) Date (NOAA-19) Time (NOAA-19) Lat,Lon (NOAA-19) SZA (NOAA-19 ) Distance(km) Time Diff (sec)
1 01/26/2019 17:50:32 78.41, -70.24 97.33 01/26/2019 17:50:38 78.39, -70.26 97.31 2.45 6
2 01/28/2019 23:24:16 -78.41, 26.35 83.25 01/28/2019 23:24:10 -78.42, 26.22 83.25 3.07 6
3 01/31/2019 04:57:58 78.44, 123.04 96.17 01/31/2019 04:57:36 78.40, 123.07 96.13 4.03 22
4 01/31/2019 05:47:27 -78.36, -69.69 83.93 01/31/2019 05:48:39 -78.39, -69.64 83.89 3.20 72
5 02/02/2019 10:31:42 -78.44,-140.37 84.46 02/02/2019 10:31:09 -78.44,-140.46 84.48 2.17 33
6 02/02/2019 11:21:09 78.38, 26.98 95.46 02/02/2019 11:22:05 78.39, 27.08 95.49 2.40 56
7 02/04/2019 16:05:24 78.46, -43.72 94.90 02/04/2019 16:04:35 78.46, -43.87 94.88 3.37 49
8 02/04/2019 16:54:53 -78.39, 123.58 85.20 02/04/2019 16:55:38 -78.41, 123.65 85.16 2.91 45
9 02/06/2019 21:39:08 -78.46, 52.88 85.78 02/06/2019 21:38:08 -78.46, 52.78 85.79 2.11 60
10 02/06/2019 22:28:35 78.40,-139.78 94.14 02/06/2019 22:29:03 78.41,-139.63 94.17 3.61 28




NCC Satellite Simultaneous Nadir Overpasses (SNOs) Prediction Service
